カタログに戻る

COSMOS 2251 DEB

運用中LEO
NORAD 35456·DEBRIS·🇷🇺 Russia

打ち上げ Jun 16, 1993 から Plesetsk Cosmodrome

Loading…

次のパス (今後24時間)

TLE

最新Source: Space-Track

元期: Sep 13, 2026, 20:20 UTC

1 35456U 93036ALA 26256.84768880  .00005042  00000-0  74401-3 0  9994
2 35456  73.9473 299.2486 0056077  81.9879 278.7651 14.74487769699248

AllMySatでCOSMOS 2251 DEBをリアルタイム追跡

Download on the App Store